Home > Weather > Zoetermeer > Past weeks

Flag for Netherlands Weather for the Past 2 Weeks in Zoetermeer, Netherlands

Now
48 °F

Drizzle. Overcast.


Feels Like: 39 °F
Forecast: 41 / 46 °F
Wind: 35 mph from Southwest

Location: Rotterdam Zestienhoven Airport

Current Time: Feb 8, 2016 at 6:27:07 PM

Latest Report: Feb 8, 2016 at 5:55 PM


Visibility: 4 mi

Pressure: 29.12 "Hg

Humidity: 76%

Dew point: 41 °F

Location of ZoetermeerLocation

Historic Weather in Zoetermeer — Graph

°F

Zoetermeer Temperature Yesterday

Maximum temperature yesterday: 54 °F (at 1:55 AM)
Minimum temperature yesterday: 45 °F (at 7:25 PM)
Average temperature yesterday: 48 °F

High & Low Weather Summary for the Past Weeks

 TemperatureHumidityPressure
High57 °F (Jan 25, 2:25 PM)100% (Jan 24, 4:25 PM)30.33 "Hg (Jan 24, 4:25 PM)
Low36 °F (Feb 3, 11:55 PM)57% (Jan 30, 9:55 PM)29.09 "Hg (Feb 8, 7:25 AM)
Average47 °F82%29.91 "Hg
* Reported Jan 24 4:25 PM — Feb 8 4:55 PM, Zoetermeer, Weather by CustomWeather, © 2016

Note: Actual official high and low records may vary slightly from our data, if they occured in-between our weather recording intervals... More about our weather records

Advertising

Zoetermeer Weather History for the Previous 24 Hours

 ConditionsComfort  
Time TempWeatherWind HumidityBarometerVisibility
4:55 PM
Mon, Feb 8
48 °FCloudy.37 mph71%29.12 "Hg6 mi
4:25 PM48 °FMostly cloudy.31 mph71%29.12 "HgN/A
3:55 PM48 °FBroken clouds.36 mph71%29.12 "HgN/A
3:25 PM48 °FCloudy.31 mph71%29.12 "HgN/A
2:55 PM48 °FBroken clouds.28 mph71%29.12 "HgN/A
2:25 PM48 °FPartly sunny.25 mph71%29.12 "HgN/A
1:55 PM48 °FBroken clouds.31 mph71%29.12 "HgN/A
1:25 PM48 °FCloudy.31 mph71%29.12 "HgN/A
12:55 PM48 °FBroken clouds.32 mph71%29.12 "HgN/A
12:25 PM48 °FPassing clouds.29 mph71%29.12 "HgN/A
11:55 AM48 °FPassing clouds.26 mph71%29.12 "HgN/A
11:25 AM48 °FPartly sunny.25 mph71%29.12 "HgN/A
10:55 AM48 °FBroken clouds.32 mph71%29.12 "HgN/A
10:25 AM48 °FPassing clouds.28 mph71%29.12 "HgN/A
9:55 AM46 °FPassing clouds.26 mph76%29.12 "HgN/A
9:25 AM48 °FPassing clouds.25 mph71%29.09 "HgN/A
8:55 AM46 °FClear.23 mph82%29.12 "HgN/A
8:25 AM46 °FClear.24 mph76%29.12 "HgN/A
7:55 AM46 °FClear.21 mph82%29.12 "HgN/A
7:25 AM48 °FPassing clouds.24 mph71%29.09 "HgN/A
6:55 AM48 °FPassing clouds.22 mph82%29.12 "HgN/A
6:25 AM48 °FPartly cloudy.15 mph87%29.12 "HgN/A
5:55 AM48 °FPassing clouds.21 mph87%29.12 "HgN/A
5:25 AM48 °FPartly cloudy.22 mph82%29.15 "HgN/A
4:55 AM46 °FPassing clouds.22 mph93%29.15 "HgN/A
4:25 AM46 °FLight rain. Passing clouds.24 mph93%29.18 "Hg6 mi
3:55 AM46 °FSprinkles. Partly cloudy.28 mph93%29.18 "Hg4 mi
3:25 AM46 °FLight rain. Partly cloudy.30 mph87%29.18 "HgN/A
2:55 AM46 °FOvercast.24 mph82%29.21 "HgN/A
1:55 AM45 °FMostly cloudy.26 mph87%29.24 "HgN/A
1:25 AM45 °FMostly cloudy.26 mph87%29.27 "HgN/A
12:55 AM46 °FLight rain. Mostly cloudy.28 mph76%29.30 "HgN/A
11:55 PM
Sun, Feb 7
45 °FLight rain. Partly cloudy.23 mph81%29.36 "HgN/A
11:25 PM45 °FPartly cloudy.28 mph76%29.39 "HgN/A
10:55 PM46 °FClear.21 mph66%29.39 "HgN/A
10:25 PM46 °FClear.22 mph66%29.42 "HgN/A
9:55 PM45 °FPassing clouds.18 mph71%29.45 "HgN/A
9:25 PM45 °FPassing clouds.20 mph76%29.45 "HgN/A
8:55 PM45 °FClear.20 mph76%29.47 "HgN/A
8:25 PM45 °FClear.20 mph76%29.47 "HgN/A
7:55 PM45 °FPassing clouds.21 mph76%29.50 "HgN/A
7:25 PM45 °FPassing clouds.21 mph76%29.50 "HgN/A
6:55 PM46 °FPartly cloudy.21 mph71%29.50 "HgN/A
6:25 PM46 °FLight rain. Partly cloudy.18 mph76%29.50 "HgN/A
Weather by CustomWeather, © 2016

See weather overviewHow to use our weather pages